SCP
7 7 7 7 7 8 8 7 6 6 6 6 5 4 3 2 2 2 3 3 2 2 2 2 2 2 1 1 1 1 1 1 1 0 0 0 1 1 1 1 1 2 2
7 6 6 7 7 8 8 7 6 6 7 7 6 5 4 3 2 2 3 3 3 2 2 2 2 2 2 2 1 1 1 1 1 1 1 1 1 1 1 1 2 2 2
6 6 6 6 7 8 9 8 7 6 7 8 7 5 4 3 3 3 3 3 3 2 2 2 2 2 2 2 2 2 2 1 1 1 1 1 1 1 1 2 2 1 1
6 6 5 5 6 7 8 8 8 7 7 7 6 5 4 3 3 3 3 3 3 2 2 2 2 2 2 2 2 2 2 2 1 1 1 1 1 1 1 1 1 1 1
6 5 5 5 5 6 7 7 7 7 6 6 6 5 4 3 3 3 3 3 3 3 3 3 3 3 3 3 3 3 2 2 2 2 2 1 1 1 1 1 1 1 1
5 5 5 5 5 6 6 7 7 7 6 6 6 5 4 3 2 2 3 3 3 3 3 3 3 3 3 4 4 4 3 3 2 2 2 2 1 1 1 1 1 1 1
4 4 4 5 6 6 7 8 7 7 6 6 6 6 5 4 3 3 2 3 3 3 3 3 3 3 3 4 4 4 3 3 3 3 2 2 1 1 1 1 1 1 1
4 4 4 5 6 7 8 8 8 7 6 5 6 6 6 5 4 3 2 2 3 3 3 3 3 3 3 3 4 4 3 3 3 2 2 1 1 1 1 1 1 1 1
5 4 4 6 7 8 8 8 8 8 6 5 5 6 6 5 4 3 3 3 3 3 3 3 3 3 3 3 3 3 3 2 2 2 1 1 1 1 1 1 1 1 1
4 4 4 5 5 6 7 7 8 8 7 5 4 4 5 4 3 2 3 3 3 3 3 3 3 3 3 3 3 3 2 2 2 1 1 1 2 2 2 2 2 2 2
3 3 4 4 4 5 6 7 7 8 7 6 4 4 4 4 3 2 3 3 4 4 4 3 3 3 3 2 2 2 2 2 1 1 1 2 2 2 2 2 2 2 3
3 3 3 4 4 5 5 5 6 6 6 6 6 4 4 5 4 3 3 4 4 4 4 3 3 3 2 2 2 2 2 2 2 2 2 2 2 2 3 3 3 3 3
4 4 5 5 5 5 5 5 5 5 5 6 6 5 5 6 5 4 3 3 3 4 4 4 3 3 3 3 3 3 2 2 2 2 2 2 2 2 3 3 3 3 3
5 6 7 8 8 7 6 5 6 5 4 5 6 6 6 6 5 5 4 3 3 3 4 4 3 3 3 3 3 3 3 3 3 2 2 2 2 2 2 3 3 3 3
6 7 9 10 10 9 7 6 7 6 5 5 6 7 6 6 6 5 4 3 3 3 4 4 4 4 3 3 2 2 2 3 3 3 2 2 2 2 2 2 3 3 3
6 7 9 11 12 11 8 8 7 6 5 6 7 8 9 8 7 5 4 4 3 3 4 4 4 4 3 2 1 1 2 2 2 2 2 2 2 1 1 1 1 2 2
6 7 9 12 14 12 10 9 8 7 7 8 11 13 13 10 7 5 4 4 3 3 4 4 4 4 3 1 1 1 1 2 2 2 2 2 1 1 1 1 1 1 1
9 9 11 13 14 13 11 10 8 8 9 12 15 17 16 12 8 6 5 4 4 4 4 4 4 3 2 1 1 1 1 1 2 2 2 2 2 1 1 1 2 2 2
14 13 14 14 14 14 14 12 9 9 10 13 17 18 17 13 9 6 5 4 4 3 3 3 3 3 2 1 1 1 1 1 2 2 2 2 2 1 1 1 2 2 2
17 17 16 15 14 15 16 14 11 10 11 14 17 18 17 14 10 6 4 4 3 3 3 3 3 3 2 2 1 1 1 2 2 3 2 2 1 1 1 1 1 1 1
17 17 16 15 14 14 14 13 11 11 13 15 16 16 15 13 9 6 5 4 4 3 3 3 4 3 3 2 1 0 1 1 2 3 2 2 1 0 0 1 1 1 1
14 14 14 14 13 13 12 11 12 13 14 16 16 14 13 10 8 6 5 5 4 4 4 4 4 4 3 2 1 0 0 1 1 2 2 1 0 0 0 0 0 0 1
12 12 13 15 15 13 11 11 12 13 15 15 14 12 10 8 7 7 6 5 5 4 4 4 4 4 3 2 1 0 0 0 0 1 1 0 0 0 0 0 0 0 0
13 13 15 16 17 15 12 11 12 13 13 12 10 10 9 8 7 7 6 5 5 4 4 4 4 3 3 2 1 1 0 0 0 0 0 0 0 0 0 0 0 0 0
15 15 15 16 16 16 14 12 12 12 11 9 7 7 7 6 6 6 5 4 4 3 3 3 3 3 2 2 1 1 0 0 0 0 1 1 0 0 0 0 0 0 0
15 15 15 16 16 15 14 12 11 10 9 8 6 5 5 5 6 5 4 3 3 2 1 2 2 2 1 1 1 0 0 0 0 0 1 1 1 0 0 0 0 0 0
Wind_Speed
12 11 11 11 11 10 9 9 9 8 6 5 5 4 3 3 2 3 4 4 4 4 3 2 4 2 2 2 3 2 3 2 2 1 1 1 2 3 3 3 3 4 5
12 12 11 11 11 10 9 9 9 9 8 6 4 3 3 3 3 2 4 4 4 4 5 3 3 3 2 2 2 2 1 2 3 2 1 1 1 1 3 3 4 4 4
12 12 12 12 11 11 10 9 9 9 8 7 5 3 2 2 3 3 3 5 5 5 4 5 3 3 4 4 4 4 3 2 2 2 2 2 2 1 1 2 3 4 3
13 13 12 12 11 11 10 8 8 8 7 7 6 7 5 5 5 3 4 4 5 5 4 4 4 3 3 4 5 5 4 3 3 2 2 2 2 2 1 1 2 4 4
12 13 12 11 11 10 10 9 8 8 7 7 7 6 5 4 3 3 4 4 4 5 5 5 4 4 3 3 4 3 4 3 3 2 2 3 3 3 3 2 2 1 2
11 10 11 10 9 9 9 9 8 8 8 8 7 7 6 5 4 4 4 4 3 4 6 6 5 4 4 4 3 3 4 3 3 3 3 2 2 3 3 3 3 2 2
10 9 10 11 10 10 9 9 9 8 8 7 7 6 5 5 5 4 4 4 4 4 5 5 4 4 4 4 4 4 4 4 4 4 3 3 3 2 2 2 3 3 2
10 10 10 10 10 10 9 9 9 8 7 7 6 5 5 4 4 5 4 5 4 4 5 5 5 5 5 5 4 4 5 4 4 5 4 3 3 2 2 2 3 2 2
11 11 11 11 10 10 9 9 8 7 7 6 5 5 5 4 4 4 4 4 4 4 5 5 5 4 5 4 4 4 4 3 4 4 4 3 3 3 2 2 3 3 3
10 11 10 10 10 10 9 9 8 7 6 6 5 5 4 4 3 3 4 3 3 3 3 4 4 4 4 4 4 3 3 3 3 3 3 3 3 2 2 3 2 2 3
11 10 10 10 10 10 10 9 8 7 6 6 5 4 4 4 4 3 3 3 3 3 3 4 4 4 4 4 4 4 3 4 4 4 4 4 3 3 2 2 2 2 2
9 9 10 10 9 10 10 9 8 7 6 6 5 4 3 4 4 3 3 3 3 3 3 4 4 4 4 3 4 5 4 4 4 4 3 3 3 3 3 2 3 2 2
9 10 9 10 9 8 8 8 8 7 7 6 5 5 4 3 3 3 2 3 3 3 3 3 3 3 3 3 3 3 3 3 3 3 3 3 3 3 3 3 3 2 3
8 9 8 8 7 7 7 7 7 7 7 6 6 5 4 3 3 3 2 2 2 2 2 2 2 2 2 2 2 2 2 2 1 1 2 2 3 3 3 3 3 2 3
9 8 8 7 7 7 7 6 6 6 6 6 6 5 4 3 3 2 2 2 2 2 2 2 2 1 2 1 1 2 2 2 1 1 1 1 1 0 1 2 2 3 3
8 8 8 9 8 7 7 6 6 5 5 5 5 5 4 3 3 2 2 2 2 2 2 2 1 1 0 2 1 0 1 1 1 1 1 1 1 2 3 4 3 3 4
6 6 7 7 7 7 7 7 6 6 5 5 4 4 4 4 3 3 3 2 2 2 2 1 2 2 2 2 3 2 0 0 1 1 1 1 1 2 3 4 4 3 2
6 5 6 6 6 7 7 6 7 6 6 5 5 4 4 4 4 3 3 2 2 2 2 2 2 2 3 3 3 2 0 1 1 1 1 1 1 1 3 4 4 4 3
5 4 5 6 5 6 7 7 7 6 6 6 5 5 4 4 4 3 3 2 2 2 2 2 2 3 3 4 3 2 1 2 1 1 2 2 3 5 4 4 4 4 3
5 4 5 6 5 5 5 6 6 6 5 5 4 4 4 4 4 3 3 2 2 2 2 2 2 3 3 3 2 1 1 2 1 2 3 5 4 4 4 3 4 4 3
7 6 6 5 4 4 4 4 4 4 4 3 3 3 3 3 3 3 2 2 2 2 2 2 2 3 3 4 2 1 0 1 2 2 2 3 5 4 3 2 3 5 4
6 6 6 5 5 4 4 3 2 2 3 4 3 3 3 3 3 3 3 2 2 2 2 2 2 2 3 3 3 3 2 1 1 2 2 3 4 4 3 3 4 5 5
5 5 6 6 5 4 3 3 3 3 3 3 3 3 2 2 3 3 2 2 2 2 2 3 3 3 3 4 4 4 4 3 2 3 5 5 5 5 4 4 4 3 2
5 5 6 6 5 4 4 4 3 3 2 3 2 2 2 2 2 1 1 1 1 2 2 2 2 2 3 3 3 3 3 5 4 4 5 5 4 3 4 3 2 1 1
5 5 5 6 5 5 5 4 3 3 2 2 1 2 2 2 2 2 3 3 4 2 1 1 0 1 2 2 3 3 3 3 4 4 3 3 2 2 2 2 2 2 2
5 5 5 5 4 4 4 4 3 2 2 1 1 1 1 2 2 3 3 8 6 6 6 5 3 3 4 5 5 5 5 6 6 4 3 3 3 3 3 3 3 2 2
Wind_Direction
166 162 164 165 167 167 170 172 178 170 167 171 178 184 195 206 204 189 171 183 194 175 195 211 162 198 183 174 173 169 182 209 199 180 177 243 204 183 182 188 181 188 189
163 162 169 173 172 172 176 175 179 175 178 178 173 177 184 207 212 196 172 193 197 191 196 205 192 185 178 187 195 188 205 219 200 186 174 202 287 262 210 183 183 191 185
165 169 176 178 175 177 181 182 180 178 183 173 170 179 181 224 212 188 184 201 197 201 215 187 208 186 189 188 197 198 208 225 225 205 180 180 204 214 259 204 185 177 178
166 170 175 178 178 178 178 174 173 176 177 178 186 188 196 210 212 197 189 198 205 203 206 201 205 206 215 186 199 199 204 213 232 228 227 213 165 168 200 250 201 186 189
165 169 172 172 175 174 171 173 171 173 177 186 190 195 210 218 215 209 196 198 205 207 212 206 200 204 223 215 216 179 199 213 229 233 227 224 200 202 184 204 217 187 187
158 159 160 159 165 167 167 167 167 172 179 188 194 201 213 217 212 212 205 202 209 208 214 212 197 207 216 220 209 191 205 219 229 250 254 228 219 210 199 196 193 194 202
150 155 160 162 165 167 165 164 164 172 181 187 194 202 216 218 216 215 215 215 218 206 207 210 193 208 213 220 207 196 219 221 223 237 251 252 250 226 210 184 191 194 189
149 159 166 161 163 165 165 163 164 171 178 185 191 195 206 218 219 217 220 217 221 217 197 197 198 207 213 220 210 213 215 215 218 234 241 252 258 240 215 199 186 194 196
150 161 162 159 161 163 163 161 159 167 178 183 183 191 199 213 225 225 221 224 217 218 195 191 196 210 217 222 207 222 224 207 215 231 230 233 248 237 229 216 193 188 198
157 160 153 155 159 160 157 154 159 167 173 174 186 190 192 203 218 232 229 228 222 225 190 187 199 208 211 216 219 229 220 211 222 230 230 229 254 263 235 223 217 200 188
162 154 152 153 157 156 157 158 160 165 172 176 184 184 184 191 201 216 224 220 210 199 201 200 209 213 213 214 211 230 226 215 217 229 225 220 237 254 256 230 208 202 175
149 151 152 154 160 158 158 159 165 168 171 170 173 177 179 182 200 208 207 203 200 203 208 208 210 217 211 211 210 225 226 220 221 228 230 229 233 234 249 245 228 214 183
152 152 156 160 163 157 157 159 167 167 167 168 171 173 183 186 193 197 186 186 196 206 208 203 205 217 214 215 216 222 237 235 233 230 225 230 233 240 235 230 229 209 190
150 149 154 153 151 149 153 160 168 163 167 168 168 168 177 181 176 173 170 180 193 198 199 199 203 219 218 211 210 222 231 233 253 261 246 240 235 239 231 224 213 196 169
154 152 152 149 149 152 158 164 164 160 164 165 165 166 168 163 158 161 170 174 195 204 181 192 204 212 210 202 204 214 207 188 204 261 275 251 182 235 236 226 194 173 164
160 159 158 158 158 161 168 165 163 156 158 161 160 155 159 157 158 160 173 172 182 186 173 172 160 146 113 76 80 30 159 166 180 199 231 208 128 94 102 103 111 137 167
158 164 158 156 160 166 165 165 162 159 163 160 160 160 160 160 160 170 172 167 168 165 160 146 132 121 94 77 78 48 339 157 178 203 230 235 130 113 114 102 96 90 110
152 149 147 147 156 161 162 160 160 163 167 168 167 165 170 170 164 164 158 151 150 155 146 137 136 128 102 89 85 52 129 125 70 57 92 121 128 104 110 110 97 77 58
116 129 142 142 145 156 157 160 164 165 170 172 171 171 173 169 166 166 154 150 155 158 158 144 140 127 106 85 75 44 128 115 101 84 64 82 88 84 103 117 118 107 86
86 97 116 121 130 137 150 162 166 168 173 170 165 164 165 168 171 168 163 161 163 171 162 135 128 123 113 97 81 48 181 142 123 94 82 73 94 103 107 130 137 134 129
86 83 90 95 101 114 136 157 162 168 163 151 150 157 163 165 166 160 156 158 166 165 155 138 135 129 123 120 101 97 144 151 143 128 105 84 93 102 110 128 135 144 142
87 93 89 88 87 95 120 129 121 118 128 136 145 150 150 165 154 148 150 157 171 176 169 163 163 148 133 111 117 118 118 85 105 108 104 102 106 103 99 109 126 137 144
92 95 98 92 85 79 89 112 89 85 109 123 130 129 130 122 119 140 152 173 187 197 197 189 192 174 138 120 117 120 116 107 98 97 108 119 125 123 110 116 129 143 151
89 90 93 92 80 68 65 70 73 65 97 126 127 133 140 134 123 124 156 194 208 213 210 213 199 166 149 145 146 145 132 120 118 117 118 117 109 104 111 127 146 180 148
87 84 87 85 76 67 65 65 65 68 85 116 136 159 160 143 117 80 40 27 49 17 339 306 264 186 168 137 138 152 159 155 138 139 148 151 148 145 153 166 175 170 162
96 95 94 93 90 81 74 65 62 68 85 129 139 183 158 139 142 135 103 56 62 59 58 55 59 76 93 123 127 125 125 127 140 152 167 172 178 182 183 180 179 185 183